[[{"header":{"parameterUnit":"m.s-1","parameterCategory":1,"la1":30.2992,"la2":30.254,"lo1":-89.0895,"lo2":-89.0443,"dy":0.0025,"dx":0.0025,"nx":19,"ny":19,"refTime":"2026-05-10T09:00:00:Z","depth":0,"parameterNumber":2,"parameterNumberName":"U-component_of_WINDS"},"data":[0,0,0,-0.6968,-0.6968,-0.6975,-0.6975,-0.7,-0.7,0,0,0,0,0,0,0,0,0,0,0,-0.6974,-0.6975,-0.6968,-0.6968,-0.6975,-0.6975,-0.7,-0.7,0,0,0,0,0,0,0,0,0,0,0,-0.6974,-0.6974,-0.6975,-0.6968,-0.6975,-0.6975,-0.6999,-0.6989,0,0,0,0,0,0,0,0,0,0,-0.698,-0.6993,-0.6974,-0.6975,-0.6968,-0.6975,-0.6975,-0.6988,-0.699,-0.7003,0,-0.7016,0,-0.7008,-0.7002,-0.7003,0,0,0,-0.6962,-0.6992,-0.6986,-0.6975,-0.6968,-0.6975,-0.697,-0.6989,-0.699,-0.7005,-0.7016,-0.7017,-0.7009,-0.7003,-0.7003,-0.7098,-0.7099,0,0,-0.6962,-0.698,-0.6985,-0.6988,-0.6986,-0.697,-0.697,-0.6989,-0.7003,-0.7016,-0.7017,-0.7009,-0.7003,-0.7003,-0.7097,-0.7098,0,0,0,-0.6965,-0.698,-0.6973,-0.6987,-0.6987,-0.697,-0.6971,-0.7002,-0.6999,-0.7017,-0.7009,-0.7003,-0.7004,-0.7096,-0.7097,-0.7151,0,0,0,-0.6964,-0.6982,-0.6974,-0.6985,-0.6987,-0.6995,-0.6984,-0.6997,-0.6999,-0.7009,-0.7003,-0.7004,-0.7095,-0.7097,-0.7148,-0.7174,0,0,0,-0.6971,-0.6982,-0.6986,-0.6986,-0.6989,-0.6994,-0.6991,-0.6997,-0.6995,-0.7003,-0.7004,-0.7095,-0.7097,-0.7145,-0.7169,-0.7205,0,0,0,-0.6983,-0.7034,-0.6987,-0.7041,-0.6989,-0.7027,-0.6991,-0.7018,-0.7031,-0.7003,-0.7096,-0.7097,-0.7144,-0.7166,-0.7202,-0.7239,-0.7256,0,0,-0.7057,-0.7043,-0.7073,-0.7032,-0.7082,-0.7024,-0.7082,-0.7077,-0.7062,-0.7087,-0.7089,-0.7149,-0.7169,-0.7204,-0.7342,-0.7356,0,0,0,-0.7103,-0.7124,-0.7134,-0.7147,-0.7144,-0.7144,-0.7128,-0.7127,-0.7147,-0.7078,-0.717,-0.7182,-0.7202,-0.7219,-0.723,-0.7247,-0.7106,-0.7105,-0.7105,-0.7233,-0.721,-0.7259,-0.7237,-0.7251,-0.7234,-0.7243,-0.7238,-0.7211,-0.7234,-0.7241,-0.7328,-0.7348,-0.7357,-0.7374,-0.7258,-0.7258,-0.7259,-0.7259,-0.734,-0.7368,-0.7331,-0.7365,-0.7341,-0.7369,-0.7356,-0.7336,-0.736,-0.732,-0.7336,-0.7295,-0.7372,-0.7387,-0.7262,-0.7262,-0.7261,-0.7261,-0.7261,-0.7424,-0.7433,-0.743,-0.7447,-0.7464,-0.744,-0.7465,-0.7442,-0.7421,-0.7437,-0.7444,-0.7443,-0.744,-0.7442,-0.7442,-0.7442,-0.7443,-0.7443,-0.7443,-0.7513,-0.7507,-0.753,-0.7532,-0.7538,-0.7543,-0.7528,-0.7534,-0.7534,-0.7516,-0.7516,-0.7488,-0.7383,-0.7358,-0.7448,-0.7447,-0.7446,-0.7446,-0.7445,-0.7631,-0.7601,-0.7637,-0.7643,-0.7644,-0.7662,-0.7632,-0.7646,-0.7648,-0.7661,-0.763,-0.7556,-0.754,-0.7531,-0.751,-0.7633,-0.7633,-0.7633,-0.7633,-0.7703,-0.7692,-0.7725,-0.7736,-0.7745,-0.7722,-0.7765,-0.7754,-0.7738,-0.7738,-0.7717,-0.7687,-0.7679,-0.7668,-0.7656,-0.7636,-0.7789,-0.7789,-0.7789,-0.7775,-0.7764,-0.7805,-0.7788,-0.7787,-0.7788,-0.7828,-0.7844,-0.782,-0.7795,-0.7738,-0.7732,-0.7683,-0.7668,-0.7643,-0.7624,-0.7587,0,0]},{"header":{"parameterUnit":"m.s-1","parameterCategory":1,"la1":30.2992,"la2":30.254,"lo1":-89.0895,"lo2":-89.0443,"dy":0.0025,"dx":0.0025,"nx":19,"ny":19,"refTime":"2026-05-10T09:00:00:Z","depth":0,"parameterNumber":3,"parameterNumberName":"V-component_of_WINDS"},"data":[0,0,0,0.7752,0.7753,0.7792,0.7792,0.7847,0.7847,0,0,0,0,0,0,0,0,0,0,0,0.7743,0.7743,0.7752,0.7753,0.7792,0.7792,0.7847,0.7847,0,0,0,0,0,0,0,0,0,0,0,0.7743,0.7743,0.7744,0.7753,0.7792,0.7792,0.7846,0.7815,0,0,0,0,0,0,0,0,0,0,0.7776,0.7771,0.7743,0.7744,0.7753,0.7792,0.7792,0.7814,0.7817,0.7831,0,0.7843,0,0.7846,0.7851,0.7851,0,0,0,0.7751,0.7768,0.7776,0.7744,0.7754,0.7792,0.7774,0.7816,0.782,0.7835,0.7844,0.7846,0.7847,0.7851,0.7852,0.7935,0.7936,0,0,0.7749,0.7752,0.7773,0.7779,0.7773,0.7773,0.7775,0.7818,0.7828,0.7844,0.7847,0.7848,0.7852,0.7852,0.7935,0.7935,0,0,0,0.7744,0.775,0.7757,0.7777,0.7783,0.7774,0.7777,0.7826,0.7828,0.7848,0.7849,0.7852,0.7853,0.7934,0.7935,0.7961,0,0,0,0.7742,0.7747,0.7756,0.7758,0.7783,0.7805,0.7784,0.7825,0.783,0.7848,0.7852,0.7853,0.7934,0.7934,0.7959,0.7974,0,0,0,0.774,0.7747,0.7754,0.7758,0.7775,0.7804,0.7809,0.7826,0.783,0.7851,0.7854,0.7933,0.7934,0.7958,0.7971,0.7996,0,0,0,0.7737,0.7777,0.7754,0.7798,0.7775,0.782,0.7809,0.7842,0.7863,0.7852,0.7934,0.7935,0.7957,0.7969,0.7994,0.8018,0.8028,0,0,0.7789,0.7783,0.7809,0.779,0.784,0.7814,0.7868,0.7885,0.7884,0.7918,0.792,0.796,0.7971,0.7996,0.8084,0.8092,0,0,0,0.7826,0.7845,0.7858,0.7878,0.7891,0.7904,0.7912,0.7918,0.7946,0.7902,0.7976,0.7982,0.7997,0.8008,0.8015,0.8027,0.794,0.794,0.794,0.7904,0.7901,0.7943,0.7944,0.7964,0.7971,0.7987,0.7996,0.7988,0.8005,0.8015,0.8069,0.8082,0.8087,0.81,0.8027,0.8027,0.8027,0.8027,0.798,0.8005,0.7992,0.8028,0.8024,0.8055,0.8063,0.8056,0.8083,0.8061,0.8074,0.805,0.8096,0.8107,0.8029,0.8029,0.8029,0.8028,0.8028,0.8031,0.8042,0.8048,0.8076,0.8098,0.8097,0.8124,0.812,0.8116,0.8128,0.8138,0.8138,0.8137,0.8133,0.8133,0.8134,0.8134,0.8134,0.8134,0.8081,0.8087,0.811,0.8127,0.8139,0.8153,0.816,0.8172,0.8183,0.8178,0.8178,0.8167,0.8101,0.8085,0.8137,0.8136,0.8136,0.8136,0.8136,0.816,0.8141,0.8177,0.8188,0.8207,0.8228,0.8222,0.8245,0.8254,0.8267,0.8253,0.8205,0.8199,0.8193,0.818,0.8254,0.8254,0.8254,0.8254,0.8203,0.8199,0.8234,0.8253,0.827,0.8268,0.8308,0.8313,0.8316,0.8321,0.8309,0.829,0.8285,0.8282,0.8275,0.8262,0.8355,0.8355,0.8355,0.8251,0.8248,0.8284,0.8285,0.8299,0.8311,0.8348,0.837,0.8369,0.8359,0.8324,0.832,0.829,0.828,0.8271,0.8259,0.8236,0,0]}]]